Travis Air Force Base Fairfield US
ICAO: KSUU
IATA: SUU
Category: Large
Scheduled Services: No

Elevation: 62 ft
TransAlt. 18000 ft.

Airport Communications:
APP:119.9
ATIS:116.4
CLNC DEL:127.55
DEP:119.9
GND:121.8
PMSV METRO:26.92
COMD POST:141.9
PTD:28.557
TWR:120.75
AERO CLUB UNICOM:123.3

KSUU Zoom In..

If Map Doesn't Load, Click Here

Runways:

(A) RW 03L length 11001 ft width 150 ft
ILS 108.35 / hdg 32

(B) RW 03R length 10995 ft width 150 ft
---- / hdg 32

(C) RW 21L length 10995 ft width 150 ft
ILS 110.10 / hdg 212

(D) RW 21R length 11001 ft width 150 ft
ILS 108.35 / hdg 212

Location; KSUU
Day. 18 / Time. 19.56 Zulu
* Altimeter: 29.91
* Temperature: 23° c. 73.4°f.
* Wind from: 000° Speed 00 kn.
Dewpoint: 10° c.
Visibility: 10 Statute Miles.
Clouds: Clear (automated report).

KSUU 181956Z AUTO 00000KT 10SM CLR 23/10 A2991 RMK AO2 SLP135 T02340101 $


Wind - Calm.

 
 
jpsmedia.com for Web Design worldairports.se 2018   terms of use